GW7392 Weather Reports


Display with metric or nautical units.
time (UTC)temp
F
wind
direction
speed
MPH
gust
MPH
rain 1hr
in
rain 24hr
in
rain mn
in
humidity
%
barometer
mb
20260508012520 49 270 6.0 13.0 0.00 1.96 0.00 92 1014.5
20260508011521 50 270 5.0 8.0 0.00 1.96 0.00 92 1014.8
20260508010520 49 293 7.0 10.0 0.00 1.96 0.00 92 1014.8
20260508005520 50 270 6.0 11.0 0.00 1.96 0.00 92 1014.9
20260508004537 50 270 6.0 12.0 0.00 1.96 0.00 92 1014.9
20260508003520 50 270 6.0 9.0 0.00 1.96 0.00 92 1014.9
20260508002537 50 270 8.0 13.0 0.00 1.96 0.00 92 1014.7
20260508001521 49 270 7.0 13.0 0.00 1.96 0.00 92 1014.7
20260508000520 49 270 7.0 12.0 0.00 1.96 0.00 92 1014.8
20260507235537 50 270 7.0 12.0 0.00 1.98 0.00 93 1014.8
20260507234520 50 270 7.0 13.0 0.00 1.98 0.00 93 1014.8
20260507233520 50 293 6.0 11.0 0.00 1.98 0.00 93 1014.9
20260507232520 50 270 6.0 10.0 0.00 1.98 0.00 93 1015.0
20260507231523 50 293 5.0 9.0 0.00 1.98 0.00 93 1015.2
20260507230553 50 293 5.0 9.0 0.00 1.98 0.00 92 1015.0
20260507225520 49 293 5.0 13.0 0.00 2.10 0.00 92 1014.8
20260507224520 50 293 7.0 12.0 0.00 2.10 0.00 92 1014.9
20260507223519 50 293 7.0 12.0 0.00 2.10 0.00 92 1014.8
20260507222522 50 293 7.0 13.0 0.00 2.10 0.00 92 1014.7
20260507221520 50 293 7.0 11.0 0.00 2.10 0.00 92 1014.9
20260507220519 50 293 7.0 11.0 0.00 2.10 0.00 92 1015.0
20260507215536 50 270 7.0 14.0 0.00 2.10 2.10 92 1014.9
20260507214519 50 293 7.0 12.0 0.00 2.10 2.10 92 1014.9
20260507213519 50 293 8.0 12.0 0.00 2.10 2.10 92 1014.8
20260507212519 50 270 8.0 13.0 0.00 2.10 2.10 92 1014.9
20260507211519 50 270 7.0 15.0 0.00 2.10 2.10 92 1014.9
20260507210519 50 270 7.0 12.0 0.00 2.10 2.10 92 1014.9
20260507205521 50 293 8.0 16.0 0.00 2.10 2.10 93 1015.0
20260507204521 50 293 7.0 12.0 0.00 2.10 2.10 93 1015.1
20260507203521 50 293 6.0 13.0 0.00 2.10 2.10 93 1015.3
20260507202521 50 293 8.0 14.0 0.00 2.10 2.10 93 1015.2
20260507201521 50 293 7.0 12.0 0.00 2.10 2.10 93 1015.3
20260507200521 50 293 7.0 11.0 0.00 2.10 2.10 93 1015.0
20260507195521 50 293 7.0 11.0 0.00 2.10 2.10 92 1015.1
20260507194536 50 293 7.0 10.0 0.00 2.10 2.10 92 1015.1
20260507193519 49 293 8.0 12.0 0.00 2.10 2.10 92 1014.9
20260507192519 50 293 8.0 14.0 0.00 2.10 2.10 92 1014.7
20260507191520 50 293 7.0 13.0 0.00 2.10 2.10 92 1015.0
20260507190521 49 293 9.0 13.0 0.00 2.10 2.10 92 1014.9
20260507185521 49 293 8.0 13.0 0.00 2.10 2.10 92 1014.8
20260507184538 50 293 8.0 13.0 0.00 2.10 2.10 92 1014.8
20260507183520 50 293 9.0 16.0 0.00 2.10 2.10 92 1014.7
20260507182520 50 270 8.0 14.0 0.00 2.10 2.10 92 1014.7
20260507181521 50 293 9.0 14.0 0.00 2.10 2.10 93 1014.7
20260507180537 50 270 8.0 13.0 0.00 2.10 2.10 93 1014.6
20260507175520 51 293 8.0 13.0 0.00 2.10 2.10 92 1014.6
20260507174521 51 270 7.0 11.0 0.00 2.10 2.10 92 1014.5
20260507173537 51 270 8.0 13.0 0.00 2.10 2.10 92 1014.3
20260507172520 51 270 8.0 14.0 0.00 2.10 2.10 92 1014.2
20260507171519 51 270 8.0 15.0 0.00 2.10 2.10 92 1014.1
20260507170521 51 270 10.0 18.0 0.00 2.10 2.10 92 1013.8
20260507165520 51 270 9.0 15.0 0.00 2.10 2.10 93 1013.6
20260507164520 51 270 11.0 23.0 0.00 2.10 2.10 93 1013.6
20260507163520 51 270 9.0 18.0 0.00 2.10 2.10 93 1013.5
20260507162520 51 270 8.0 14.0 0.01 2.10 2.10 93 1013.2
20260507161520 51 270 9.0 19.0 0.01 2.10 2.10 92 1013.0
20260507160537 51 270 9.0 18.0 0.01 2.10 2.10 92 1013.0
20260507155520 51 270 11.0 19.0 0.01 2.10 2.10 93 1013.0
20260507154520 51 270 10.0 23.0 0.01 2.10 2.10 93 1012.8
20260507153520 51 270 12.0 23.0 0.01 2.10 2.10 93 1012.6
20260507152520 51 270 11.0 23.0 0.00 2.09 2.09 93 1012.2
20260507151520 51 270 11.0 18.0 0.00 2.09 2.09 93 1012.3
20260507150520 51 270 9.0 23.0 0.02 2.09 2.09 94 1012.2
20260507145520 51 270 9.0 14.0 0.06 2.09 2.09 94 1012.2
20260507144524 51 270 9.0 20.0 0.06 2.09 2.09 94 1011.9
20260507143520 52 270 9.0 16.0 0.07 2.09 2.09 94 1012.2
20260507142520 52 270 10.0 19.0 0.09 2.09 2.09 94 1012.1
20260507141520 52 270 10.0 21.0 0.11 2.09 2.09 94 1011.9
20260507140520 52 270 10.0 20.0 0.09 2.07 2.07 94 1011.7
20260507135520 52 270 10.0 22.0 0.08 2.04 2.04 94 1011.4
20260507134520 53 270 7.0 13.0 0.11 2.03 2.03 94 1011.6
20260507133508 53 270 9.0 19.0 0.13 2.02 2.02 94 1011.4
20260507132537 53 270 8.0 16.0 0.12 2.01 2.01 94 1011.1
20260507131520 53 270 10.0 19.0 0.09 1.98 1.98 94 1010.7
20260507125520 53 270 8.0 15.0 0.08 1.96 1.96 94 1010.2
20260507124536 54 270 9.0 21.0 0.06 1.92 1.92 94 1010.4
20260507123520 54 270 8.0 20.0 0.04 1.89 1.89 94 1010.1
20260507122519 54 270 8.0 14.0 0.06 1.89 1.89 95 1010.0
20260507121520 53 270 7.0 13.0 0.07 1.89 1.89 95 1009.8
20260507120519 53 270 10.0 14.0 0.08 1.89 1.89 95 1009.9
20260507115519 53 270 8.0 18.0 0.07 1.88 1.88 95 1009.7
20260507114519 53 248 11.0 20.0 0.07 1.87 1.87 95 1009.6
20260507113519 53 270 9.0 18.0 0.06 1.85 1.85 95 1009.4
20260507112519 54 270 10.0 22.0 0.04 1.83 1.83 95 1009.3
20260507111520 54 270 9.0 18.0 0.04 1.82 1.82 95 1009.2
20260507110520 54 270 9.0 20.0 0.05 1.81 1.81 95 1009.1
20260507105536 54 270 9.0 20.0 0.05 1.81 1.81 95 1009.0
20260507104536 54 270 9.0 20.0 0.05 1.80 1.80 95 1008.9
20260507103520 54 248 9.0 20.0 0.08 1.80 1.80 95 1008.8
20260507102520 54 248 10.0 22.0 0.10 1.80 1.80 95 1008.7
20260507101521 55 270 8.0 16.0 0.10 1.78 1.78 95 1008.7
20260507100519 54 270 10.0 19.0 0.13 1.76 1.76 95 1008.6
20260507095536 55 270 9.0 18.0 0.17 1.76 1.76 95 1008.5
20260507094520 54 270 7.0 20.0 0.17 1.75 1.75 95 1008.7
20260507093520 54 270 8.0 18.0 0.22 1.72 1.72 95 1008.7
20260507092520 54 270 9.0 18.0 0.27 1.69 1.69 95 1008.5
20260507091520 54 270 8.0 15.0 0.33 1.68 1.68 95 1008.7
20260507090519 53 270 7.0 12.0 0.31 1.63 1.63 95 1008.4
20260507085536 53 270 9.0 15.0 0.29 1.60 1.60 95 1008.2
20260507084519 53 270 8.0 15.0 0.28 1.57 1.57 95 1008.0
20260507083520 53 270 8.0 14.0 0.24 1.50 1.50 95 1008.2
20260507082519 53 270 9.0 16.0 0.19 1.43 1.43 95 1008.0
20260507081536 53 270 10.0 16.0 0.14 1.35 1.35 95 1007.7
20260507080519 54 270 8.0 11.0 0.13 1.32 1.32 95 1007.6
20260507075521 53 293 8.0 15.0 0.18 1.31 1.31 95 1007.4
20260507074519 53 293 8.0 13.0 0.19 1.29 1.29 95 1007.0
20260507073519 53 270 8.0 15.0 0.17 1.26 1.26 95 1007.2
20260507072519 53 293 8.0 15.0 0.16 1.24 1.24 95 1007.1
20260507071520 52 293 9.0 19.0 0.17 1.20 1.20 95 1007.0
20260507070520 53 293 9.0 15.0 0.20 1.20 1.20 94 1006.8
20260507065519 53 293 9.0 16.0 0.17 1.13 1.13 94 1006.5
20260507064519 53 293 10.0 18.0 0.17 1.10 1.10 94 1006.3
20260507063519 53 293 10.0 15.0 0.23 1.09 1.09 94 1006.2
20260507062538 53 270 10.0 18.0 0.23 1.08 1.08 94 1005.7
20260507061521 53 270 9.0 15.0 0.20 1.04 1.04 94 1005.4
20260507060538 53 270 7.0 14.0 0.25 0.99 0.99 94 1005.3
20260507055519 54 270 8.0 13.0 0.25 0.97 0.96 94 1005.2
20260507054519 54 270 9.0 13.0 0.33 0.94 0.93 94 1004.8
20260507053521 54 270 7.0 15.0 0.34 0.87 0.87 94 1004.7
20260507052554 54 270 11.0 23.0 0.36 0.86 0.85 94 1004.4
20260507051521 54 270 9.0 20.0 0.42 0.84 0.83 94 1004.2
20260507050519 55 270 11.0 20.0 0.33 0.75 0.74 94 1004.1
20260507045519 54 270 7.0 12.0 0.31 0.72 0.71 94 1003.6
20260507044519 54 270 7.0 12.0 0.20 0.61 0.60 94 1003.8
20260507043519 54 270 8.0 16.0 0.15 0.54 0.53 94 1003.3
20260507042519 55 270 10.0 19.0 0.13 0.50 0.49 94 1003.1
20260507041521 55 270 10.0 20.0 0.07 0.43 0.42 94 1003.1
20260507040522 55 270 11.0 29.0 0.09 0.42 0.41 94 1002.5